Theta_e
318 317 318 331 338 339 342 340 335 328 328 325 324 324 321 320 323 332 326 328 334 334 330 328 326 324 324 323 327 332 334 335 337 338 337 335 331 326 326 330 329 328 327 328 328 330 336 336 334
319 322 326 337 341 344 342 336 335 328 326 324 324 324 322 323 325 326 326 327 328 329 330 331 331 328 322 320 325 331 336 336 336 339 338 336 333 332 331 332 332 331 330 329 329 328 332 336 336
324 328 336 334 338 342 340 337 334 326 325 326 325 324 326 325 324 327 327 325 328 328 328 330 329 326 325 329 333 335 335 337 337 338 336 334 335 334 333 333 333 333 332 331 330 329 328 333 336
331 334 332 333 335 333 335 334 328 327 326 325 324 325 325 325 324 327 326 325 325 327 331 328 325 322 320 320 321 330 335 336 336 337 333 332 332 332 332 333 333 333 333 332 331 330 329 328 332
334 330 332 335 336 335 333 333 329 326 324 324 323 326 325 325 325 325 324 324 324 325 325 324 323 323 322 322 320 317 320 329 336 335 333 332 332 331 331 332 332 332 332 332 332 330 330 330 332
331 328 331 333 332 332 332 331 331 327 326 323 323 327 326 324 325 325 325 323 324 325 324 323 323 322 323 322 322 322 322 320 320 321 326 328 331 331 331 331 331 330 330 330 331 332 329 331 332
331 331 332 332 333 331 332 331 331 330 326 324 324 325 326 324 325 324 324 324 324 323 322 322 323 324 323 324 324 323 325 326 325 325 324 322 326 328 328 329 328 328 329 329 330 331 329 327 330
330 329 331 331 331 331 329 331 330 328 327 324 324 324 327 324 324 324 324 324 323 322 322 323 324 325 326 329 329 328 327 326 326 326 325 325 325 324 327 327 327 328 329 329 330 331 329 327 327
331 330 331 331 331 330 324 326 327 327 329 328 323 323 326 326 325 324 323 323 323 323 323 323 322 323 326 328 329 328 326 326 327 327 327 327 325 324 325 325 327 328 329 329 330 330 330 327 327
330 329 331 330 329 329 325 324 326 327 326 328 325 325 326 326 325 323 322 322 322 324 323 322 323 325 327 328 329 328 328 327 328 327 327 325 324 323 325 325 325 327 328 329 330 330 329 329 327
329 329 328 328 329 328 326 323 323 326 327 326 324 324 324 324 323 322 322 323 325 324 324 325 327 329 329 330 330 329 327 326 327 327 325 325 324 323 324 325 324 323 325 325 327 329 328 327 327
330 328 329 328 329 329 327 326 325 326 326 324 323 324 322 322 321 321 322 324 325 323 325 327 328 329 330 331 330 327 328 328 326 326 326 327 325 324 324 325 324 324 325 325 325 326 328 327 327
330 329 329 330 329 327 326 326 326 325 326 324 323 324 323 321 320 323 324 325 325 324 325 327 328 328 330 329 328 327 327 327 327 327 326 327 326 325 324 325 325 324 324 324 325 326 327 325 327
330 329 329 330 328 327 327 327 324 325 326 323 323 320 320 320 322 324 325 325 325 323 326 327 327 328 328 328 328 328 329 329 328 326 326 327 327 326 324 325 325 324 324 324 325 326 326 326 326
325 326 327 328 327 326 327 325 325 325 325 325 324 321 321 320 323 323 325 325 325 323 325 327 326 327 328 329 330 330 330 329 328 327 327 328 327 325 325 325 325 325 323 323 324 325 326 326 327
323 324 327 326 326 326 325 326 325 326 325 326 325 324 323 321 321 324 325 326 325 324 326 326 326 328 330 330 328 330 330 330 330 329 328 326 327 327 327 326 326 326 323 323 324 325 326 327 328
322 324 326 327 326 327 326 327 326 326 325 325 325 324 324 322 322 327 327 327 326 324 324 326 328 328 331 329 331 330 332 330 329 329 329 326 324 324 327 327 325 326 323 324 324 327 327 328 328
323 325 326 327 327 326 327 326 327 326 326 325 326 325 325 325 324 327 327 327 325 324 324 325 328 329 330 332 331 331 331 330 329 329 329 327 326 325 328 327 326 326 324 324 325 326 327 327 326
323 325 327 327 327 326 329 329 330 329 327 326 326 326 324 324 325 326 327 327 325 324 324 325 329 330 331 332 333 332 331 330 327 328 328 328 328 326 328 328 327 325 325 324 324 326 326 326 328
323 323 324 326 327 330 330 329 330 329 327 326 326 325 325 326 326 326 328 327 325 325 324 327 329 331 334 332 333 332 331 331 329 329 329 330 328 328 329 328 325 326 324 325 326 327 324 329 329
325 324 324 326 327 328 328 330 330 330 328 327 326 324 327 326 326 326 328 327 326 326 325 325 331 332 334 331 331 330 330 330 329 328 328 329 328 329 328 328 327 327 325 324 326 326 327 329 329
325 325 326 327 328 329 329 329 328 327 326 326 326 322 326 326 327 327 327 328 327 327 323 329 331 333 333 331 332 330 328 330 329 330 327 328 329 330 330 330 329 327 327 324 326 326 327 328 329
325 326 326 327 327 327 327 326 326 327 328 326 324 324 327 327 326 327 327 329 327 326 325 328 331 332 333 331 331 331 330 329 329 327 327 329 329 328 330 329 330 327 327 327 327 327 328 328 329
324 325 325 326 328 330 328 328 327 327 328 327 328 329 329 327 326 327 328 329 329 326 327 329 331 331 332 330 330 331 330 328 328 329 329 329 330 330 330 331 329 328 325 327 328 327 329 329 329
324 324 327 329 329 329 327 327 325 326 326 325 327 329 328 328 327 327 328 327 326 325 327 328 330 330 330 330 330 330 329 328 327 328 330 328 330 331 330 330 330 329 327 328 328 328 329 328 329
318 324 326 331 332 328 327 330 329 328 326 324 330 329 328 327 327 326 327 326 325 325 328 328 330 328 329 330 330 331 329 327 328 330 330 330 330 331 331 330 330 330 329 328 329 329 329 329 329
322 325 323 328 329 328 328 331 329 326 324 325 331 330 328 327 326 326 326 324 325 326 327 326 330 327 329 330 330 331 329 327 326 328 329 329 330 330 330 329 330 330 329 329 328 329 329 329 331
320 324 327 326 329 330 328 330 333 327 324 326 331 332 329 327 326 325 326 324 325 325 325 327 328 327 329 329 329 331 330 330 331 328 326 329 329 328 329 330 330 329 329 329 328 329 329 330 330
320 323 326 324 324 328 329 328 327 326 324 331 331 331 328 326 326 325 325 325 326 325 324 326 326 327 328 327 327 331 329 330 330 329 326 329 329 330 330 330 329 328 329 330 329 330 329 328 328
321 322 326 328 330 325 325 329 326 326 331 331 332 330 326 324 324 324 324 323 325 325 325 326 326 327 326 327 326 330 330 331 329 330 328 326 327 328 329 330 330 329 330 330 329 329 327 327 327
Wind_Speed
9 7 4 2 2 1 5 10 6 9 4 4 7 7 8 6 4 4 16 14 18 19 17 14 11 10 10 9 9 9 10 10 10 11 11 11 11 11 10 8 6 5 6 7 8 9 8 9 8
9 6 4 3 3 2 6 8 9 3 7 7 8 6 9 4 6 10 13 15 14 15 13 13 12 11 8 6 7 8 10 11 12 12 12 12 12 12 12 10 9 8 8 8 10 10 10 9 8
10 10 0 3 3 8 5 3 14 8 6 5 4 6 6 9 10 14 19 17 15 12 13 14 11 8 5 5 6 8 10 12 13 12 12 13 13 14 15 14 13 13 12 11 11 12 12 11 9
3 3 4 1 11 15 4 7 4 2 2 7 6 7 5 11 8 18 20 16 13 10 19 15 11 7 4 4 8 10 12 12 13 12 13 13 14 15 16 15 16 16 16 15 13 13 13 12 10
6 3 4 5 13 16 7 7 7 7 7 4 7 5 6 6 24 23 18 14 15 17 15 11 6 2 5 9 9 9 12 14 15 14 12 13 14 15 16 16 17 18 17 17 17 15 14 13 12
3 1 2 7 13 11 3 6 6 6 6 3 7 7 5 18 21 19 17 13 15 13 7 4 5 8 9 9 8 8 8 9 12 15 15 14 13 14 16 17 18 19 19 19 18 18 17 14 11
4 2 7 12 16 13 0 11 4 13 5 3 4 3 5 9 20 22 19 18 12 9 8 9 12 8 5 5 7 9 8 10 11 11 12 13 14 15 17 19 20 21 22 22 20 21 19 18 14
4 2 11 14 12 17 4 3 7 6 6 9 9 5 6 8 24 21 19 14 13 13 12 14 12 6 3 2 7 11 12 11 10 7 6 6 8 11 13 15 18 20 21 21 22 22 21 18 17
13 6 12 17 16 13 8 6 5 7 2 3 10 6 13 29 23 20 19 19 17 19 13 15 11 5 2 5 9 12 11 14 9 7 6 7 8 10 10 14 14 17 17 20 20 20 21 20 17
9 6 19 16 16 14 9 7 6 7 9 4 8 11 24 28 26 18 14 14 16 18 17 10 4 3 8 9 7 7 4 7 9 7 10 14 13 13 14 12 14 13 13 17 19 19 21 18 19
14 16 16 17 17 16 8 9 8 11 5 1 11 11 10 8 15 14 16 18 17 16 14 7 4 3 5 4 8 10 10 10 8 12 12 11 12 10 10 12 13 13 15 13 16 20 21 21 20
17 21 20 21 19 16 6 8 15 8 5 7 8 13 8 9 10 12 11 15 17 15 13 8 4 1 3 7 11 10 11 10 12 15 16 15 14 11 11 11 13 12 12 15 16 22 23 22 19
21 20 22 20 18 6 7 13 17 7 5 6 8 13 12 11 10 18 15 21 16 17 9 6 2 3 5 10 11 11 13 16 16 15 17 17 17 14 11 13 13 13 13 15 17 24 21 21 20
19 19 20 19 15 7 13 17 6 8 4 7 8 11 11 11 11 13 16 17 18 14 10 5 0 7 9 10 12 12 13 13 14 17 15 17 20 16 12 13 13 12 16 12 19 24 26 23 21
18 21 22 20 12 12 14 10 8 9 8 9 10 9 9 12 19 18 26 22 19 12 10 4 2 7 5 2 7 11 13 13 15 16 14 12 11 12 12 12 13 12 14 16 19 20 24 24 19
18 19 19 10 12 18 10 14 11 8 7 9 11 9 12 12 12 22 29 24 21 16 10 5 1 5 5 10 11 14 13 11 13 13 13 11 11 10 12 11 10 9 13 18 19 18 22 21 16
10 13 16 14 17 21 12 18 14 9 9 10 9 10 11 9 7 24 30 27 21 15 10 5 2 5 5 9 12 11 8 11 11 11 12 12 13 12 13 12 7 6 15 19 17 15 17 16 18
12 10 11 17 21 19 16 11 7 11 11 12 10 9 9 10 13 25 32 28 23 17 10 5 4 3 7 8 11 8 6 7 9 9 9 9 11 9 11 11 8 9 13 18 16 14 14 14 14
16 15 19 22 22 19 8 6 8 7 9 8 9 7 9 10 10 26 31 28 24 17 12 6 5 2 5 7 9 6 2 3 8 7 10 7 11 8 7 8 10 12 15 18 17 17 18 14 17
18 20 23 22 17 8 18 22 8 9 10 9 11 10 6 11 14 14 25 27 24 19 11 9 4 2 2 5 5 7 10 6 7 8 10 7 6 7 5 6 9 12 15 18 21 21 16 16 23
19 21 21 18 21 14 5 5 6 8 6 9 10 7 15 20 16 13 14 25 23 16 14 8 8 2 2 5 5 9 6 6 4 7 11 2 4 5 6 6 9 10 16 21 23 22 20 20 19
19 18 21 22 17 6 2 5 3 5 9 9 7 9 14 14 15 12 12 15 22 17 13 10 8 3 4 4 6 9 6 6 3 5 9 3 5 6 7 6 9 11 15 22 23 27 25 26 23
21 16 17 20 15 5 6 3 5 3 8 8 3 4 12 17 17 15 13 20 22 18 16 13 9 5 2 3 5 7 8 7 3 5 5 4 3 4 4 8 9 13 15 19 22 25 23 25 23
22 13 17 18 14 11 7 8 7 5 5 1 5 11 14 13 14 14 19 26 21 21 18 13 12 6 1 3 6 10 6 5 6 7 8 7 4 5 4 9 10 11 16 18 22 24 23 23 20
17 14 10 5 5 6 7 5 8 8 7 8 10 11 10 14 15 14 14 10 22 22 19 15 14 9 3 5 7 10 8 6 7 7 6 6 6 8 5 8 13 14 16 19 22 24 20 24 21
20 16 10 7 4 5 7 5 8 11 8 10 15 13 13 14 14 13 13 14 22 20 20 16 16 12 6 9 9 9 7 6 6 6 6 9 9 10 9 7 11 14 17 20 23 23 21 25 22
14 18 14 6 3 4 5 5 7 6 8 10 12 13 13 13 13 13 11 19 23 22 20 13 17 13 13 9 9 8 6 6 6 6 6 10 11 11 11 12 15 13 17 21 23 22 20 22 21
27 7 8 2 8 6 5 4 6 9 9 9 11 11 9 10 11 11 11 18 24 24 20 13 14 15 13 10 9 9 5 5 4 6 9 11 14 14 14 15 16 17 17 22 23 22 22 26 24
14 16 7 7 6 6 1 6 8 14 9 14 11 12 14 12 12 11 10 21 27 24 20 14 13 15 14 11 10 12 7 5 4 8 8 11 15 16 16 16 19 21 19 23 26 29 27 27 26
18 14 8 8 5 4 6 5 7 9 11 15 13 14 12 11 10 9 11 18 24 25 21 17 13 18 14 13 11 10 9 8 8 10 9 13 13 13 15 16 17 20 22 23 25 31 29 30 26
Wind_Direction
208 209 211 259 21 168 262 280 343 63 65 95 88 86 88 103 95 183 141 117 141 156 165 168 182 192 199 210 221 227 232 235 231 227 229 228 240 257 265 270 269 265 262 263 261 257 263 261 270
199 204 247 274 176 299 278 311 268 105 151 126 120 125 92 66 94 127 130 148 155 153 168 178 188 196 199 218 226 234 238 243 236 235 235 228 238 245 258 260 268 263 261 256 255 253 255 262 259
207 216 291 204 211 234 247 228 314 2 117 131 101 87 109 139 123 143 144 146 142 164 194 183 182 180 194 224 239 242 247 243 238 233 236 239 240 245 246 253 259 261 260 259 254 249 250 251 262
192 268 288 235 259 271 234 296 9 21 14 161 114 114 57 158 119 143 151 151 161 154 165 161 165 174 207 241 256 246 240 247 247 240 241 243 249 249 252 254 257 257 257 255 254 249 243 251 260
237 264 230 260 267 264 267 347 15 353 321 113 143 104 100 88 126 142 145 151 129 132 141 145 154 162 303 307 298 274 264 255 250 245 247 249 249 250 251 252 252 254 255 255 251 246 241 240 246
284 162 295 276 281 303 257 67 294 331 321 38 47 110 169 138 134 147 158 149 146 129 142 208 240 271 281 281 278 268 271 272 272 268 259 256 255 256 255 257 254 253 254 252 249 240 233 234 235
212 286 265 279 289 309 70 75 313 282 232 88 115 81 157 150 155 157 155 154 162 200 217 236 236 229 250 264 246 247 255 281 290 292 283 272 268 265 262 258 257 256 252 251 246 239 225 228 232
242 235 280 279 284 286 292 204 186 255 136 174 139 145 187 206 156 152 159 178 202 197 203 208 199 157 136 15 303 284 266 259 273 277 281 283 293 291 271 264 260 255 251 245 242 235 222 218 228
251 254 262 269 277 284 329 14 298 344 181 238 174 129 147 155 156 157 172 186 204 199 184 153 154 180 223 310 309 270 283 267 253 268 274 275 280 296 285 272 278 262 250 243 241 232 218 217 225
230 232 249 260 273 292 302 334 334 337 308 281 93 101 146 158 163 168 180 192 196 131 140 144 141 316 314 324 307 332 270 266 248 253 270 282 281 284 268 274 270 271 265 247 232 220 212 214 225
242 241 252 261 262 275 290 318 299 293 289 68 164 165 157 153 167 187 197 205 144 136 126 102 47 338 313 310 285 292 320 275 241 285 298 275 289 285 272 275 272 265 260 255 227 213 208 213 218
244 246 249 254 259 251 279 290 285 269 236 89 128 163 154 168 184 191 200 153 130 121 118 101 96 13 299 281 293 294 288 280 289 296 288 274 275 281 284 279 274 266 260 248 231 210 209 211 216
241 247 255 263 269 228 262 264 265 258 293 120 132 148 175 184 196 198 187 133 124 117 109 118 133 306 274 287 289 287 281 278 284 280 281 273 267 266 269 267 274 263 245 242 233 209 204 207 213
253 254 259 261 270 251 255 261 255 243 267 180 191 179 190 176 178 162 155 142 132 127 122 135 3 283 279 272 286 297 288 290 275 280 283 291 266 251 272 272 271 261 239 231 224 211 209 211 217
268 273 275 270 266 264 252 252 258 232 226 228 223 199 192 189 178 177 168 149 142 133 144 173 325 281 277 326 313 307 291 291 285 279 284 297 238 263 279 276 271 266 236 213 216 217 213 216 221
282 276 260 259 269 265 230 252 237 240 224 263 213 195 201 209 191 175 159 147 141 130 138 153 238 284 294 318 317 308 293 294 287 277 278 263 261 263 267 270 269 257 205 197 206 212 210 213 223
261 256 257 263 254 263 242 254 214 210 234 259 222 222 221 200 144 147 155 149 146 149 148 139 208 303 297 324 314 318 306 312 305 298 286 273 265 255 251 254 256 210 181 191 197 210 203 211 203
236 259 250 256 254 259 259 242 203 210 212 235 245 241 213 167 161 145 147 146 146 146 148 178 247 261 318 318 320 324 302 322 330 309 312 289 273 247 247 254 241 195 188 192 193 196 197 202 172
237 245 248 251 247 252 321 285 216 225 254 238 258 251 225 169 141 140 147 149 144 144 146 180 212 224 335 336 350 346 297 292 352 351 336 289 258 228 247 256 218 189 193 195 188 200 197 174 165
226 248 260 271 276 126 229 250 236 223 235 228 232 244 216 126 138 141 140 146 146 144 153 178 197 157 334 350 335 345 323 314 324 352 357 347 198 192 223 214 191 177 187 190 180 195 181 157 159
232 230 250 260 276 284 244 233 237 253 265 277 241 188 145 151 149 149 143 146 147 150 156 174 165 154 139 16 359 358 358 319 330 2 359 32 147 168 198 202 173 184 184 182 177 186 181 162 166
240 228 240 254 265 256 266 270 289 291 293 298 253 167 155 145 145 148 143 140 148 153 161 165 149 164 159 34 18 23 2 331 346 351 357 27 171 175 203 172 181 173 181 181 179 182 179 169 155
239 225 233 242 253 252 290 323 259 259 290 285 151 207 152 149 149 147 143 145 155 162 159 157 158 167 194 98 26 21 350 341 13 9 10 25 151 162 189 180 176 164 165 173 178 176 177 174 157
230 229 233 243 246 246 226 212 256 234 232 141 129 120 138 128 134 133 143 150 155 158 155 162 161 159 210 54 49 17 22 43 60 51 28 18 70 149 175 182 175 164 164 167 173 175 176 173 157
220 220 236 260 222 204 217 272 239 259 202 166 139 133 132 134 138 142 146 145 148 156 160 171 164 156 150 91 65 44 62 84 75 42 39 20 79 100 120 165 174 169 175 170 172 170 172 171 163
225 208 213 214 178 226 245 230 254 222 155 130 125 138 130 132 143 146 146 143 152 161 165 178 173 154 154 116 84 80 83 77 48 43 58 63 82 93 90 122 147 168 169 165 167 169 173 170 168
222 211 202 207 205 198 214 250 339 113 127 120 119 124 136 142 145 147 142 146 158 162 169 186 166 158 144 129 125 105 110 72 71 56 54 86 104 103 91 118 122 132 153 160 162 164 162 169 156
215 184 191 179 195 246 281 283 224 157 163 140 127 138 135 141 141 146 145 152 164 167 169 173 162 152 150 148 153 138 114 77 45 72 67 106 106 102 100 115 116 125 147 148 154 153 150 148 148
218 218 184 149 153 176 220 277 232 176 164 149 146 146 147 152 152 149 147 154 161 163 164 164 159 157 151 137 134 136 112 121 85 96 91 117 122 104 100 116 122 128 141 149 149 150 149 136 135
216 207 169 185 213 176 171 255 159 153 146 143 150 149 150 149 149 146 145 147 153 162 166 167 179 162 158 156 144 136 127 111 103 114 102 115 115 116 115 112 125 135 138 149 151 153 142 136 130